Location: Unspecified
(0.0000°N, 0.0000°E)
Time: 20:52:08
(UTC+00:00)

STARLINK-34712 - Visible Passes

Search period start: 10 November 2025 00:00
Search period end: 20 November 2025 00:00
Orbit: 446 x 448 km, 53.2° (Epoch: 07 November)

Date Brightness Start Highest point End Pass type
(mag) Time Alt. Az. Time Alt. Az. Time Alt. Az.
14 Nov 6.3 19:48:48 10° WNW 19:48:55 11° WNW 19:48:55 11° WNW visible
15 Nov 3.8 19:09:21 10° NW 19:12:47 56° SW 19:15:15 18° SSE visible
16 Nov 3.0 18:30:03 10° NNW 18:33:33 76° ENE 18:37:02 10° SE visible
18 Nov 6.7 18:50:18 10° W 18:51:44 12° SW 18:53:11 10° SSW visible
19 Nov 6.4 04:52:36 10° SSE 04:54:59 17° SE 04:57:23 10° E visible
19 Nov 6.3 18:09:30 10° WNW 18:12:09 20° SW 18:14:51 10° S visible
